Wind_Speed
36 31 46 46 51 50 55 45 40 34 36 36 33 34 31 30 31 29 27 28 32 36 39 41 32 33 32 29 19 13 8 7 6 7 8 9 12 15 18 19 21 24 26
45 47 59 57 57 53 53 46 38 42 36 37 31 33 30 29 28 26 25 27 30 32 29 26 29 31 21 16 13 12 11 11 12 12 14 16 18 20 23 25 26 28 31
49 58 64 63 60 59 53 47 45 44 36 36 32 31 27 28 27 23 22 25 28 24 23 29 25 18 17 15 14 15 15 16 17 18 20 23 26 29 32 35 38 40 42
54 64 68 67 65 64 56 49 45 37 44 36 31 29 27 28 23 22 22 25 25 20 23 20 19 19 20 20 21 22 23 23 24 26 27 30 33 36 40 43 46 49 52
58 65 71 71 69 62 54 49 37 47 40 33 32 27 27 24 23 21 22 24 21 19 20 20 20 22 23 25 26 26 27 28 29 31 34 37 40 43 47 51 54 57 61
59 66 74 73 68 60 58 57 49 43 36 34 30 28 25 24 23 21 22 20 19 18 19 20 21 24 27 29 29 30 31 33 36 39 42 45 47 51 55 59 64 68 72
61 68 71 67 59 58 55 55 43 39 36 34 30 28 24 25 22 20 21 18 20 19 19 22 24 28 29 30 32 33 35 38 40 44 47 50 55 59 64 69 73 75 77
60 65 64 61 62 62 58 50 40 37 35 32 31 27 24 24 20 19 17 17 16 17 21 24 26 27 30 32 33 35 38 43 46 48 52 56 62 68 73 76 77 76 75
56 56 58 60 57 55 48 48 42 39 34 32 32 25 24 22 19 16 16 14 15 17 20 21 24 28 30 31 35 37 42 44 48 52 59 66 71 73 73 72 70 68 67
61 54 56 55 53 50 46 48 46 39 34 35 29 26 23 21 16 14 12 12 14 16 18 21 24 27 30 33 36 41 44 49 55 62 67 69 69 68 65 64 64 62 62
55 56 57 53 53 47 46 50 44 36 37 33 28 25 22 19 16 12 10 11 12 14 19 22 24 28 31 35 39 44 50 57 62 65 66 64 61 59 58 57 57 57 56
58 60 63 56 53 52 48 46 40 41 37 32 30 25 22 19 15 11 9 9 12 16 19 22 25 28 33 37 43 49 56 61 61 59 57 56 58 57 57 58 58 58 59
61 65 64 61 56 48 48 45 43 41 36 33 29 24 21 17 15 11 9 9 13 16 18 22 26 31 35 41 47 53 58 59 57 58 61 63 63 60 59 58 58 59 58
59 68 63 63 54 45 50 46 47 41 37 34 28 24 18 16 14 10 9 11 13 15 19 23 28 33 39 45 50 55 58 59 60 64 64 65 61 57 57 57 56 56 55
59 59 58 58 53 51 50 50 46 40 39 32 28 23 18 16 12 9 9 10 12 16 20 25 30 35 42 47 52 56 59 61 63 65 64 65 58 57 56 55 55 56 57
58 56 58 53 53 53 51 52 45 43 38 33 28 23 18 14 10 8 8 9 13 17 22 25 31 37 43 48 53 59 60 61 62 62 62 60 57 55 55 55 55 56 56
57 59 54 51 54 54 56 50 45 43 38 32 27 21 16 13 10 8 7 9 14 18 21 26 33 38 43 50 55 57 58 58 59 58 61 59 58 56 57 56 57 57 57
62 58 55 53 57 59 54 49 46 43 36 31 26 20 16 13 10 7 7 11 14 17 21 27 32 37 44 50 53 54 54 55 57 58 60 62 59 60 58 58 60 60 59
62 58 51 57 60 57 52 50 49 43 38 32 25 21 17 13 10 7 7 10 12 16 21 27 32 37 43 47 50 53 52 54 56 58 62 65 63 63 61 62 62 63 61
65 61 54 60 60 53 54 51 48 42 37 32 27 20 17 12 10 6 7 8 11 16 22 26 31 35 41 45 49 48 51 55 58 60 65 69 68 67 66 65 65 66 65
63 60 58 61 60 54 54 51 47 42 38 31 25 19 16 13 9 6 6 6 9 15 21 25 28 34 38 43 43 47 50 55 59 63 68 73 75 71 71 69 69 67 67
62 60 62 63 58 55 53 50 45 41 37 31 26 21 18 13 8 5 4 5 8 14 20 24 26 31 35 41 42 44 48 53 59 63 67 72 77 79 75 74 73 71 70
64 64 62 63 57 57 54 50 44 40 36 32 27 22 19 13 8 5 3 3 7 14 19 22 25 30 31 36 41 43 47 51 55 60 66 70 74 80 81 79 76 75 74
65 66 62 58 58 58 54 50 44 40 36 32 27 24 20 14 9 5 2 1 7 13 17 19 21 26 28 33 37 41 46 51 54 57 61 66 71 76 80 81 82 79 78
66 66 61 58 58 57 55 49 45 41 37 32 28 24 19 14 9 5 3 1 6 12 17 17 19 23 27 32 36 39 43 48 52 56 60 62 66 71 76 79 81 83 80
67 67 64 59 58 57 53 51 46 41 37 32 26 23 20 15 10 6 4 2 5 11 17 16 17 21 25 30 34 37 41 45 49 54 57 60 64 67 70 74 79 83 84
Wind_Direction
213 196 197 194 199 203 209 212 220 227 231 235 236 240 247 257 249 257 270 282 293 300 306 306 317 327 327 328 329 336 343 346 16 16 343 329 315 309 308 306 305 302 298
208 190 187 191 194 197 199 207 213 226 226 230 232 237 243 249 251 258 271 287 295 303 304 318 323 327 334 349 7 19 12 6 358 344 332 325 316 309 302 296 291 287 284
201 190 190 190 192 193 199 200 213 220 230 224 231 237 246 244 249 257 272 285 295 291 301 310 315 321 331 341 347 352 348 342 336 327 319 313 309 307 304 302 300 297 293
198 194 194 190 195 195 195 196 203 219 223 224 231 232 243 242 247 255 271 284 288 286 301 302 308 320 323 324 327 332 332 328 324 319 315 311 307 305 302 299 296 293 291
197 196 195 196 197 194 199 193 197 220 216 220 223 230 234 240 246 253 270 280 276 285 297 301 309 317 322 321 320 320 319 317 314 313 312 309 305 303 301 298 295 291 288
193 198 199 199 197 193 196 203 201 210 214 217 218 225 229 239 239 254 268 276 266 285 294 303 313 316 317 319 317 313 314 316 316 313 310 308 305 303 301 300 298 294 292
193 198 199 200 191 193 195 202 201 206 210 210 214 216 226 236 239 256 268 268 267 280 292 302 312 315 318 319 318 318 316 315 313 309 308 308 307 304 301 299 298 296 294
193 198 199 199 196 198 202 205 198 200 203 204 208 214 227 230 242 255 267 265 273 284 293 302 309 314 316 317 315 313 313 313 313 312 309 307 305 304 303 302 300 298 296
188 195 192 192 196 198 204 201 193 194 201 203 206 214 225 227 239 251 259 262 277 289 298 305 313 313 314 313 317 317 314 314 314 313 311 309 308 306 305 304 301 299 297
190 189 187 185 186 180 189 194 190 197 199 199 204 213 217 226 234 241 252 268 282 294 303 310 310 313 316 320 317 317 319 319 317 315 313 311 310 309 307 305 304 303 301
177 176 174 177 178 186 189 186 190 193 193 198 204 208 214 221 227 235 253 267 284 301 306 310 316 319 321 319 321 322 321 320 319 317 316 316 316 315 314 313 312 312 310
175 176 172 177 180 180 182 185 190 189 193 194 199 202 212 216 224 230 239 266 292 306 313 320 321 322 322 326 325 324 325 324 323 324 326 327 328 327 325 324 321 318 315
177 180 176 181 178 175 177 181 191 186 189 196 191 199 209 214 220 219 240 277 301 312 324 323 324 327 330 328 328 328 328 330 335 339 340 337 334 332 329 327 325 322 320
177 180 184 185 181 179 182 184 184 183 188 189 187 198 204 211 212 222 255 290 310 323 327 329 332 334 333 331 330 331 335 340 342 343 340 339 338 335 332 331 329 328 326
179 175 178 177 178 183 183 183 182 181 187 182 187 193 203 204 217 238 268 298 320 327 333 337 338 337 334 334 337 341 344 344 343 341 341 341 341 339 339 337 337 336 334
175 173 167 173 180 181 180 180 181 183 184 182 188 190 200 211 223 244 275 312 325 333 341 342 340 338 339 343 347 348 346 344 343 343 345 346 346 346 347 346 345 344 341
174 169 173 176 177 176 179 181 177 183 178 182 186 189 201 212 225 248 287 321 327 340 344 343 343 345 348 351 352 350 348 346 347 347 353 355 354 355 355 354 353 353 351
173 171 174 176 174 177 175 176 178 181 181 185 191 191 203 213 225 249 297 316 334 343 346 345 347 350 353 356 356 354 352 350 352 355 359 2 1 3 2 2 2 2 360
178 177 176 175 176 174 177 175 182 180 180 182 182 190 202 211 225 246 291 319 341 348 348 347 349 354 357 359 357 359 358 358 1 4 5 9 7 9 8 10 9 8 7
182 178 174 174 177 174 178 175 183 182 181 183 188 194 200 206 218 245 291 329 345 351 350 350 354 357 360 358 360 6 7 9 12 13 13 12 14 13 14 14 16 15 14
179 181 177 176 175 181 175 177 184 184 183 184 185 191 195 199 216 247 302 332 352 355 351 352 358 0 1 360 4 8 12 15 20 20 19 18 17 17 17 19 19 20 19
179 178 177 178 179 181 175 180 186 184 183 182 183 189 190 196 213 252 302 330 5 356 353 355 359 4 3 5 9 13 16 20 22 21 21 20 19 19 21 21 23 22 24
175 176 180 179 181 180 175 181 186 184 182 183 183 187 188 196 209 246 284 332 5 357 355 356 3 8 7 9 12 15 17 20 21 21 21 21 22 22 22 23 23 26 26
176 178 178 181 182 181 175 180 186 184 182 182 186 185 189 198 210 231 259 347 4 356 354 357 6 11 9 9 14 16 20 21 21 21 23 23 23 25 25 25 26 26 29
177 179 178 184 183 185 176 179 185 186 184 184 186 183 189 201 211 228 230 137 0 353 353 357 3 9 11 9 8 10 14 18 19 21 23 23 23 25 27 27 27 28 29
179 179 181 183 183 185 182 176 184 187 187 185 184 185 192 202 210 224 206 131 3 358 356 356 359 3 3 7 5 7 11 16 19 19 21 23 24 25 27 28 28 29 29
Height
10509 10523 10536 10545 10552 10561 10574 10580 10590 10600 10608 10616 10624 10631 10635 10638 10641 10643 10644 10644 10642 10639 10634 10628 10620 10613 10605 10598 10590 10584 10580 10578 10576 10574 10573 10571 10569 10568 10566 10564 10561 10559 10557
10496 10507 10514 10524 10533 10546 10558 10570 10580 10592 10600 10609 10617 10624 10628 10631 10634 10637 10637 10637 10635 10632 10627 10621 10614 10607 10601 10594 10590 10586 10583 10579 10577 10575 10573 10570 10567 10564 10561 10559 10556 10553 10549
10485 10494 10503 10513 10525 10535 10545 10558 10573 10583 10593 10602 10610 10616 10621 10625 10628 10631 10631 10630 10628 10625 10621 10617 10611 10606 10600 10595 10591 10587 10583 10579 10575 10572 10569 10565 10561 10557 10553 10548 10544 10540 10536
10473 10482 10493 10503 10514 10523 10537 10552 10565 10578 10586 10595 10603 10609 10615 10619 10623 10624 10625 10623 10621 10618 10616 10613 10609 10604 10599 10594 10589 10585 10580 10576 10571 10567 10563 10558 10553 10548 10543 10537 10532 10526 10521
10463 10475 10486 10494 10503 10519 10536 10546 10559 10569 10580 10590 10597 10604 10609 10614 10616 10618 10619 10617 10615 10612 10610 10608 10604 10599 10595 10590 10585 10581 10576 10571 10566 10560 10554 10549 10543 10538 10531 10524 10517 10510 10503
10451 10466 10477 10487 10501 10517 10529 10539 10551 10564 10575 10584 10592 10598 10604 10608 10611 10612 10612 10611 10609 10607 10605 10603 10599 10594 10590 10585 10580 10574 10568 10563 10557 10551 10544 10537 10530 10523 10515 10507 10498 10489 10480
10445 10460 10472 10484 10501 10514 10525 10535 10548 10561 10570 10579 10586 10593 10598 10603 10605 10606 10606 10605 10604 10602 10600 10597 10593 10588 10584 10579 10573 10567 10561 10555 10548 10541 10533 10524 10515 10506 10497 10487 10477 10466 10455
10441 10454 10468 10482 10495 10509 10521 10533 10546 10557 10566 10574 10581 10588 10594 10598 10600 10601 10600 10600 10599 10597 10594 10591 10587 10583 10578 10572 10567 10561 10554 10546 10537 10529 10520 10511 10500 10488 10476 10464 10452 10440 10428
10434 10448 10463 10477 10491 10504 10516 10529 10542 10553 10562 10569 10577 10583 10589 10593 10595 10596 10596 10595 10594 10592 10589 10585 10581 10577 10572 10567 10561 10553 10545 10536 10527 10517 10506 10494 10481 10468 10454 10441 10428 10416 10405
10423 10439 10457 10472 10487 10500 10513 10525 10538 10549 10557 10565 10572 10580 10584 10588 10590 10591 10591 10590 10589 10587 10584 10580 10576 10572 10566 10560 10553 10545 10536 10527 10516 10504 10491 10477 10463 10448 10434 10420 10406 10394 10382
10422 10439 10453 10470 10484 10496 10509 10522 10535 10545 10553 10561 10569 10576 10580 10583 10585 10586 10586 10586 10585 10582 10580 10575 10571 10565 10560 10553 10545 10536 10527 10516 10504 10490 10474 10458 10443 10429 10415 10402 10388 10375 10362
10421 10437 10451 10467 10480 10494 10507 10520 10531 10541 10550 10558 10566 10571 10576 10579 10581 10582 10583 10582 10581 10579 10575 10570 10565 10560 10553 10546 10537 10527 10516 10503 10489 10474 10457 10442 10428 10412 10397 10383 10370 10356 10342
10419 10435 10449 10464 10478 10492 10505 10517 10528 10538 10547 10555 10561 10567 10572 10575 10577 10578 10579 10578 10577 10574 10570 10565 10561 10555 10547 10539 10529 10518 10507 10492 10476 10460 10444 10428 10413 10398 10384 10370 10355 10340 10326
10420 10434 10447 10461 10476 10490 10502 10515 10525 10535 10544 10551 10558 10564 10569 10572 10574 10575 10575 10574 10573 10570 10565 10561 10556 10549 10541 10533 10522 10511 10496 10480 10464 10449 10434 10419 10403 10388 10373 10358 10342 10328 10312
10420 10433 10446 10461 10475 10488 10501 10512 10522 10532 10541 10549 10556 10561 10565 10569 10571 10572 10571 10571 10569 10566 10562 10557 10551 10545 10537 10527 10515 10501 10486 10471 10457 10443 10427 10411 10395 10379 10363 10347 10331 10314 10297
10420 10434 10448 10460 10473 10487 10499 10509 10520 10530 10538 10546 10553 10558 10563 10566 10568 10569 10568 10568 10566 10562 10559 10554 10549 10542 10532 10521 10508 10494 10480 10466 10452 10438 10423 10405 10388 10372 10355 10338 10322 10306 10287
10421 10434 10446 10458 10471 10483 10495 10506 10517 10528 10536 10544 10550 10556 10560 10563 10565 10566 10566 10564 10562 10560 10556 10552 10545 10537 10527 10516 10504 10491 10477 10463 10449 10434 10419 10399 10382 10366 10348 10331 10315 10298 10280
10420 10432 10445 10457 10469 10481 10494 10507 10516 10526 10535 10542 10548 10553 10557 10561 10563 10563 10563 10562 10560 10557 10553 10548 10542 10534 10525 10513 10502 10489 10476 10462 10447 10431 10415 10397 10379 10362 10344 10327 10309 10291 10274
10418 10432 10445 10457 10469 10481 10494 10503 10513 10523 10532 10539 10546 10551 10555 10558 10560 10561 10561 10560 10558 10555 10551 10546 10539 10532 10522 10512 10502 10489 10476 10461 10446 10430 10413 10396 10378 10361 10343 10326 10307 10290 10273
10418 10430 10443 10457 10471 10481 10491 10500 10512 10521 10530 10537 10543 10549 10553 10556 10558 10559 10559 10558 10556 10553 10549 10544 10538 10531 10522 10513 10502 10491 10477 10462 10447 10432 10415 10397 10380 10362 10345 10327 10309 10292 10275
10417 10429 10442 10456 10467 10477 10487 10499 10510 10519 10528 10535 10542 10547 10551 10555 10556 10557 10557 10556 10555 10552 10547 10543 10537 10530 10522 10514 10503 10492 10479 10466 10451 10435 10419 10402 10384 10367 10349 10331 10314 10298 10280
10415 10429 10442 10454 10466 10477 10489 10499 10508 10517 10525 10533 10539 10545 10549 10552 10554 10555 10555 10555 10553 10550 10546 10542 10537 10530 10523 10514 10505 10494 10482 10469 10455 10441 10425 10409 10391 10373 10355 10337 10320 10302 10286
10414 10428 10442 10454 10466 10478 10486 10496 10506 10515 10524 10530 10537 10542 10547 10550 10552 10553 10554 10553 10551 10549 10545 10541 10536 10530 10523 10516 10507 10497 10486 10473 10460 10447 10432 10417 10400 10381 10362 10345 10328 10312 10294
10414 10427 10441 10454 10465 10475 10484 10494 10504 10514 10522 10528 10534 10540 10544 10547 10550 10551 10552 10551 10550 10548 10545 10541 10536 10531 10524 10517 10509 10499 10488 10477 10465 10452 10439 10425 10409 10392 10375 10358 10340 10322 10305
10413 10427 10439 10452 10464 10474 10482 10493 10502 10511 10519 10526 10532 10537 10542 10545 10548 10549 10550 10550 10549 10547 10544 10540 10536 10531 10525 10519 10511 10502 10492 10481 10469 10457 10445 10432 10418 10403 10387 10371 10355 10339 10322
10411 10424 10438 10450 10462 10473 10483 10490 10500 10509 10517 10524 10530 10535 10539 10543 10545 10547 10548 10548 10548 10546 10543 10540 10536 10532 10526 10520 10513 10505 10495 10485 10474 10463 10451 10439 10426 10412 10398 10383 10368 10352 10335